Retour au catalogue

PRAETORIAN SDA_508

ActifMilitairePO
NORAD 100066·PAYLOAD·🇺🇸 United States

Lancé Jul 16, 2026 depuis Vandenberg Space Force Base

Loading…

Prochains Passages (prochaines 24 heures)

TLE

FraisSource: Space-Track

Époque: Sep 13, 2026, 23:17 UTC

1 A0066U 26163H   26256.97082932  .00000137  00000-0  10923-3 0  9990
2 A0066  81.4754 255.9071 0014604  57.2102 303.0461 13.85528362  8192

Suivez PRAETORIAN SDA_508 en temps réel avec AllMySat

Download on the App Store